Weather in Larikha

Russia / Tyumen Oblast     55°52′06″N   69°20′24″E
temp.,
°C
wind,
m/s
gust,
m/s
humid.,
%
clouds,
%
prec.,
mm/h
press.,
hPa
HPBL,
m
12 april, mon
mon1223:000ssw4108868 0.0 1037171
02:000sw4118564 0.0 1035196
05:000sw4117784 0.0 1035217
08:00+1sw41188100 0.0 1034245
11:00+4wsw48100100 0.0 1033237
14:00+9w5881100 0.0 1033481
17:00+6wnw4995100 0.1 1034317
20:00+6wnw3394100 0.0 103544
13 april, tue
tue1323:00+5n399085 0.0 1036185
02:00+3nne22880 0.0 103814
05:00+2nnw22840 0.0 103913
08:00+5nw35730 0.0 1040233
11:00+9nw46450 0.0 1040872
14:00+11wnw55414 0.0 10401213
17:00+11w56474 0.0 1039969
20:00+7w36690 0.0 103894
14 april, wed
wed1423:00+6wsw3475100 0.0 103864
02:00+4sw377997 0.0 1036104
05:00+3wsw41083100 0.0 1035182
08:00+6wsw5127799 0.0 1034370
11:00+11wsw7105777 0.0 1032568
14:00+14w795622 0.0 1030878
17:00+15w69629 0.0 10281047
20:00+11wsw49825 0.0 1027152
15 april, thu
thu1523:00+9wsw36895 0.0 1027101
02:00+9w34905 0.0 102651
05:00+8wsw34905 0.0 102547
08:00+11wsw488222 0.0 1024235
11:00+16w57645 0.0 1023793
14:00+18w684426 0.0 10211489
17:00+18w58456 0.0 10191406
20:00+13w356630 0.0 101857
16 april, fri
fri1623:00+11w357355 0.0 101765
02:00+10wsw34816 0.0 101647
05:00+9wsw33875 0.0 101635
08:00+11w247983 0.0 1015162
11:00+14sw356684 0.0 1014402
14:00+16w235674 0.0 1012768
17:00+16ene125734 0.0 1010426
20:00+11e3583100 0.0 100981